[[{"header":{"parameterUnit":"m.s-1","parameterCategory":1,"la1":30.2992,"la2":30.254,"lo1":-89.0895,"lo2":-89.0443,"dy":0.0025,"dx":0.0025,"nx":19,"ny":19,"refTime":"2026-03-26T09:00:00:Z","depth":0,"parameterNumber":2,"parameterNumberName":"U-component_of_WINDS"},"data":[0,0,0,-2.5228,-2.523,-2.5306,-2.5306,-2.541,-2.5411,0,0,0,0,0,0,0,0,0,0,0,-2.5209,-2.521,-2.5228,-2.523,-2.5306,-2.5306,-2.541,-2.5411,0,0,0,0,0,0,0,0,0,0,0,-2.5209,-2.521,-2.5211,-2.523,-2.5306,-2.5307,-2.541,-2.535,0,0,0,0,0,0,0,0,0,0,-2.5274,-2.5261,-2.521,-2.5211,-2.5231,-2.5306,-2.5307,-2.5347,-2.5354,-2.5378,0,-2.5402,0,-2.5408,-2.5419,-2.5419,0,0,0,-2.5226,-2.5256,-2.5273,-2.5211,-2.5231,-2.5306,-2.5271,-2.5351,-2.5358,-2.5387,-2.5403,-2.5407,-2.541,-2.5419,-2.542,-2.5575,-2.5576,0,0,-2.5222,-2.5225,-2.5268,-2.5278,-2.5267,-2.5268,-2.5273,-2.5355,-2.5372,-2.5404,-2.5409,-2.5412,-2.542,-2.5421,-2.5574,-2.5576,0,0,0,-2.5212,-2.5222,-2.5237,-2.5274,-2.5287,-2.5271,-2.5276,-2.5369,-2.5373,-2.541,-2.5413,-2.5421,-2.5422,-2.5574,-2.5575,-2.5621,0,0,0,-2.521,-2.5216,-2.5235,-2.5238,-2.5286,-2.5329,-2.5288,-2.5368,-2.5377,-2.5413,-2.5421,-2.5423,-2.5573,-2.5574,-2.5618,-2.5642,0,0,0,-2.5203,-2.5216,-2.5228,-2.5238,-2.5271,-2.5328,-2.5337,-2.537,-2.5379,-2.5419,-2.5423,-2.5572,-2.5574,-2.5615,-2.5638,-2.5684,0,0,0,-2.5196,-2.5268,-2.5229,-2.531,-2.527,-2.5356,-2.5336,-2.54,-2.544,-2.5421,-2.5573,-2.5575,-2.5614,-2.5634,-2.5681,-2.5724,-2.5742,0,0,-2.5288,-2.5279,-2.5326,-2.5294,-2.5387,-2.5344,-2.5445,-2.5478,-2.5479,-2.5543,-2.5547,-2.5619,-2.5637,-2.5684,-2.5844,-2.5859,0,0,0,-2.5356,-2.539,-2.5415,-2.5453,-2.5482,-2.5508,-2.5526,-2.5539,-2.5593,-2.5513,-2.5649,-2.5659,-2.5686,-2.5707,-2.5719,-2.5742,-2.5584,-2.5584,-2.5584,-2.5489,-2.5488,-2.5566,-2.5574,-2.5612,-2.5631,-2.5661,-2.5681,-2.5668,-2.57,-2.5719,-2.5816,-2.584,-2.585,-2.5874,-2.5741,-2.5742,-2.5742,-2.5742,-2.5623,-2.5671,-2.5653,-2.5722,-2.572,-2.5778,-2.5799,-2.5788,-2.5841,-2.5802,-2.5826,-2.5782,-2.5866,-2.5887,-2.5745,-2.5745,-2.5744,-2.5744,-2.5744,-2.571,-2.5733,-2.5748,-2.5805,-2.5848,-2.5854,-2.5906,-2.5902,-2.5898,-2.5922,-2.5942,-2.5941,-2.5939,-2.5932,-2.5932,-2.5933,-2.5933,-2.5933,-2.5933,-2.5794,-2.581,-2.5855,-2.5892,-2.5916,-2.5949,-2.5969,-2.5993,-2.6019,-2.6011,-2.6012,-2.5995,-2.5874,-2.5844,-2.5938,-2.5938,-2.5937,-2.5936,-2.5936,-2.593,-2.5899,-2.5969,-2.5994,-2.6037,-2.6081,-2.6076,-2.6125,-2.6145,-2.6171,-2.615,-2.6061,-2.6051,-2.6042,-2.6016,-2.615,-2.615,-2.615,-2.615,-2.6003,-2.5998,-2.6069,-2.611,-2.6149,-2.6151,-2.623,-2.6247,-2.6259,-2.6271,-2.6251,-2.6218,-2.6208,-2.6204,-2.619,-2.6167,-2.6335,-2.6336,-2.6336,-2.6087,-2.6086,-2.6154,-2.6166,-2.62,-2.6229,-2.6303,-2.635,-2.6357,-2.6343,-2.628,-2.6272,-2.6218,-2.6201,-2.6184,-2.6164,-2.612,0,0]},{"header":{"parameterUnit":"m.s-1","parameterCategory":1,"la1":30.2992,"la2":30.254,"lo1":-89.0895,"lo2":-89.0443,"dy":0.0025,"dx":0.0025,"nx":19,"ny":19,"refTime":"2026-03-26T09:00:00:Z","depth":0,"parameterNumber":3,"parameterNumberName":"V-component_of_WINDS"},"data":[0,0,0,3.3096,3.3097,3.313,3.313,3.3178,3.3179,0,0,0,0,0,0,0,0,0,0,0,3.3091,3.3091,3.3096,3.3097,3.313,3.313,3.3178,3.3179,0,0,0,0,0,0,0,0,0,0,0,3.3091,3.3091,3.3092,3.3097,3.313,3.313,3.3178,3.3151,0,0,0,0,0,0,0,0,0,0,3.3118,3.3118,3.3091,3.3092,3.3097,3.313,3.313,3.3149,3.3153,3.3167,0,3.3181,0,3.3181,3.3183,3.3183,0,0,0,3.3093,3.3115,3.312,3.3092,3.3098,3.313,3.3114,3.3151,3.3155,3.3171,3.3182,3.3183,3.3182,3.3183,3.3183,3.328,3.3281,0,0,3.3091,3.3099,3.3118,3.3123,3.3119,3.3113,3.3115,3.3153,3.3165,3.3182,3.3184,3.3183,3.3183,3.3184,3.328,3.3281,0,0,0,3.3089,3.3098,3.3102,3.3121,3.3126,3.3114,3.3116,3.3163,3.3164,3.3185,3.3183,3.3184,3.3184,3.3279,3.328,3.332,0,0,0,3.3087,3.3096,3.3101,3.3106,3.3126,3.3145,3.3126,3.3161,3.3165,3.3183,3.3184,3.3185,3.3278,3.328,3.3317,3.3336,0,0,0,3.3087,3.3096,3.3103,3.3106,3.3121,3.3145,3.3147,3.3162,3.3165,3.3183,3.3185,3.3278,3.3279,3.3315,3.3333,3.3365,0,0,0,3.3089,3.3136,3.3104,3.3156,3.3121,3.3169,3.3147,3.3182,3.3203,3.3184,3.3278,3.328,3.3314,3.333,3.3362,3.3393,3.3407,0,0,3.3153,3.3144,3.3174,3.3146,3.3203,3.3164,3.3226,3.3236,3.323,3.3264,3.3266,3.3318,3.3332,3.3364,3.3481,3.3492,0,0,0,3.3197,3.3219,3.3233,3.3253,3.3264,3.3274,3.3275,3.3279,3.3308,3.3249,3.3338,3.3346,3.3365,3.3379,3.3388,3.3404,3.3287,3.3287,3.3287,3.3298,3.329,3.3339,3.3335,3.3356,3.3357,3.3373,3.3378,3.3362,3.3384,3.3393,3.3465,3.3483,3.3489,3.3506,3.3409,3.3409,3.3409,3.3409,3.3391,3.3421,3.3401,3.3442,3.3433,3.3467,3.347,3.3458,3.3488,3.3457,3.3473,3.3439,3.3502,3.3515,3.3412,3.3412,3.3412,3.3411,3.3411,3.3455,3.3468,3.3474,3.3505,3.3529,3.3523,3.3554,3.3544,3.3534,3.355,3.3559,3.3559,3.3557,3.3555,3.3556,3.3556,3.3556,3.3556,3.3556,3.352,3.3525,3.3553,3.357,3.3583,3.3599,3.3602,3.3614,3.3625,3.3615,3.3615,3.3597,3.351,3.3488,3.356,3.356,3.3559,3.3559,3.3558,3.3617,3.3594,3.3637,3.365,3.367,3.3695,3.3683,3.3709,3.3717,3.3733,3.3712,3.365,3.3639,3.3632,3.3614,3.3714,3.3714,3.3714,3.3714,3.3671,3.3666,3.3708,3.373,3.3751,3.3745,3.3793,3.3797,3.3796,3.3801,3.3786,3.3761,3.3754,3.3748,3.3738,3.372,3.3846,3.3846,3.3846,3.373,3.3727,3.377,3.3772,3.3787,3.38,3.3846,3.3871,3.3866,3.3851,3.3805,3.3799,3.3759,3.3747,3.373,3.3715,3.3683,0,0]}]]